Location: Oshawa
(43.9000°N, 78.8670°W)
Time: 20:07:01
(UTC-04:00)

S-56A Canister/Altair - All Passes

Search period start: 28 May 2015 00:00
Search period end: 07 June 2015 00:00
Orbit: 636 x 2499 km, 38.9° (Epoch: 26 May)

Date Brightness Start Highest point End Pass type
(mag) Time Alt. Az. Time Alt. Az. Time Alt. Az.
28 May - 00:03:02 10° SSW 00:14:29 34° SSE 00:23:16 10° E visible
28 May - 02:07:40 10° WSW 02:19:27 57° SSE 02:27:19 10° E visible
28 May - 04:14:13 10° W 04:24:00 61° S 04:30:24 10° ESE visible
28 May - 06:20:49 10° W 06:27:29 32° SSW 06:32:18 10° SSE daylight
28 May - 21:34:35 10° SE 21:36:47 11° SE 21:40:05 10° ESE visible
28 May - 23:30:13 10° SSW 23:41:44 33° SSE 23:50:53 10° E visible
29 May - 01:34:28 10° WSW 01:46:50 56° SSE 01:55:14 10° E visible
29 May - 03:41:02 10° W 03:51:36 63° S 03:58:28 10° ESE visible
29 May - 05:47:46 10° W 05:55:20 37° SSW 06:00:37 10° SE daylight
29 May - 22:57:29 10° SSW 23:08:56 31° SSE 23:18:24 10° E visible
30 May - 01:01:17 10° SW 01:14:08 55° SSE 01:23:05 10° E visible
30 May - 03:07:46 10° W 03:19:06 65° S 03:26:29 10° ESE visible
30 May - 05:14:39 10° W 05:23:07 42° SSW 05:28:53 10° SE daylight
30 May - 07:23:18 10° WSW 07:25:38 12° SW 07:27:27 10° SSW daylight
30 May - 22:24:53 10° SSW 22:36:07 29° SE 22:45:48 10° E visible
31 May - 00:28:07 10° SW 00:41:22 53° SSE 00:50:53 10° E visible
31 May - 02:34:29 10° WSW 02:46:32 66° S 02:54:28 10° E visible
31 May - 04:41:29 10° W 04:50:51 48° SSW 04:57:05 10° SE visible
31 May - 06:49:23 10° W 06:53:34 16° SW 06:56:51 10° S daylight
31 May - 21:52:24 10° S 22:03:16 26° SE 22:13:04 10° E visible
31 May - 23:55:01 10° SW 00:08:33 51° SSE 00:18:36 10° E visible
01 Jun - 02:01:10 10° WSW 02:13:53 67° S 02:22:23 10° E visible
01 Jun - 04:08:15 10° W 04:18:30 53° SSW 04:25:14 10° SE visible
01 Jun - 06:15:51 10° W 06:21:29 20° SW 06:25:44 10° S daylight
01 Jun - 21:20:04 10° S 21:30:24 24° SE 21:40:11 10° E visible
01 Jun - 23:21:58 10° SW 23:35:40 49° SSE 23:46:14 10° E visible
02 Jun - 01:27:51 10° WSW 01:41:11 67° S 01:50:16 10° E visible
02 Jun - 03:34:58 10° W 03:46:04 57° SSW 03:53:20 10° ESE visible
02 Jun - 05:42:27 10° W 05:49:21 24° SW 05:54:23 10° SSE daylight
02 Jun - 20:47:55 10° S 20:57:33 22° SE 21:07:07 10° E daylight
02 Jun - 22:49:00 10° SW 23:02:45 47° SSE 23:13:48 10° E visible
03 Jun - 00:54:32 10° WSW 01:08:23 67° S 01:18:05 10° E visible
03 Jun - 03:01:40 10° W 03:13:32 61° SSW 03:21:23 10° ESE visible
03 Jun - 05:09:05 10° W 05:17:10 29° SW 05:22:53 10° SSE daylight
03 Jun - 20:15:59 10° S 20:24:41 19° SE 20:33:49 10° E daylight
03 Jun - 22:16:08 10° SW 22:29:48 44° SSE 22:41:16 10° E visible
04 Jun - 00:21:16 10° WSW 00:35:31 66° S 00:45:51 10° E visible
04 Jun - 02:28:18 10° W 02:40:57 64° SSW 02:49:22 10° ESE visible
04 Jun - 04:35:44 10° W 04:44:55 34° SW 04:51:16 10° SSE visible
04 Jun - 19:44:21 10° SSE 19:51:52 17° SE 20:00:13 10° E daylight
04 Jun - 21:43:23 10° SSW 21:56:49 42° SSE 22:08:39 10° E visible
04 Jun - 23:48:02 10° WSW 00:02:35 65° SSE 00:13:31 10° E visible
05 Jun - 01:54:56 10° W 02:08:15 67° S 02:17:17 10° ESE visible
05 Jun - 04:02:22 10° W 04:12:35 40° SSW 04:19:34 10° SSE visible
05 Jun - 06:14:07 10° WSW 06:15:03 10° SW 06:15:24 10° SW daylight
05 Jun - 19:13:09 10° SSE 19:19:04 14° SE 19:26:10 10° ESE daylight
05 Jun - 21:10:44 10° SSW 21:23:50 39° SSE 21:35:55 10° E visible
05 Jun - 23:14:52 10° WSW 23:29:36 63° SSE 23:41:08 10° E visible
06 Jun - 01:21:35 10° W 01:35:28 69° S 01:45:09 10° ESE visible
06 Jun - 03:28:59 10° W 03:40:09 45° SSW 03:47:45 10° SE visible
06 Jun - 05:38:25 10° W 05:42:55 14° SW 05:46:18 10° SSW daylight
06 Jun - 18:42:49 10° SE 18:46:19 12° SE 18:51:17 10° ESE daylight
06 Jun - 20:38:14 10° SSW 20:50:52 36° SE 21:03:04 10° E daylight
06 Jun - 22:41:48 10° WSW 22:56:33 62° SSE 23:08:39 10° E visible
